This is the latest recevied weather packets stored in our database for station/object SP8PUB-10. If no packets are shown the sender has not sent any weather packets the latest 10 day(s).
| Time | Temp. | Humidity | Pressure | Rain* | Wind** | Luminosity | Snow |
|---|---|---|---|---|---|---|---|
| 1777673124 | 6.67° C | 93% | 1025.9 hPa | - | - | - | - |
| 1777672224 | 7.22° C | 91% | 1025.9 hPa | - | - | - | - |
| 1777671324 | 7.78° C | 88% | 1025.9 hPa | - | - | - | - |
| 1777670424 | 7.78° C | 87% | 1025.8 hPa | - | - | - | - |
| 1777669524 | 8.33° C | 84% | 1025.6 hPa | - | - | - | - |
| 1777668624 | 8.89° C | 80% | 1025.6 hPa | - | - | - | - |
| 1777667724 | 9.44° C | 79% | 1025.5 hPa | - | - | - | - |
| 1777666824 | 10° C | 76% | 1025.4 hPa | - | - | - | - |
| 1777665923 | 10.56° C | 71% | 1025.4 hPa | - | - | - | - |
| 1777665023 | 11.11° C | 67% | 1025.3 hPa | - | - | - | - |
| 1777664123 | 11.67° C | 65% | 1025.4 hPa | - | - | - | - |
| 1777663223 | 12.22° C | 63% | 1025.2 hPa | - | - | - | - |
| 1777662323 | 12.78° C | 63% | 1025.1 hPa | - | - | - | - |
| 1777661423 | 13.33° C | 61% | 1025 hPa | - | - | - | - |
| 1777660523 | 13.89° C | 60% | 1025 hPa | - | - | - | - |
| 1777659623 | 14.44° C | 58% | 1024.9 hPa | - | - | - | - |
| 1777658723 | 14.44° C | 57% | 1024.7 hPa | - | - | - | - |
| 1777657823 | 15° C | 56% | 1024.6 hPa | - | - | - | - |
| 1777656922 | 15.56° C | 55% | 1024.5 hPa | - | - | - | - |
| 1777656022 | 15.56° C | 54% | 1024.5 hPa | - | - | - | - |
| 1777655122 | 16.11° C | 54% | 1024.2 hPa | - | - | - | - |
| 1777654222 | 16.11° C | 53% | 1024.3 hPa | - | - | - | - |
| 1777653322 | 16.67° C | 52% | 1024.3 hPa | - | - | - | - |
| 1777652422 | 16.67° C | 51% | 1024.4 hPa | - | - | - | - |
| 1777651522 | 16.67° C | 50% | 1024.4 hPa | - | - | - | - |
* Rain since midnight (hover to see other rain measurements)
** Current wind speed in m/s (hover to see current wind gust speed)